CST,Max TemperatureF,Mean TemperatureF,Min TemperatureF,Max Dew PointF,MeanDew PointF,Min DewpointF,Max Humidity, Mean Humidity, Min Humidity, Max Sea Level PressureIn, Mean Sea Level PressureIn, Min Sea Level PressureIn, Max VisibilityMiles, Mean VisibilityMiles, Min VisibilityMiles, Max Wind SpeedMPH, Mean Wind SpeedMPH, Max Gust SpeedMPH,PrecipitationIn, CloudCover, Events, WindDirDegrees
2013-1-1,26,16,5,25,16,1,100,91,80,30.05,29.97,29.90,10,8,0,20,9,26,0.20,6,Fog-Snow,252
2013-1-2,28,21,14,25,19,10,93,87,79,30.27,30.07,29.93,10,8,1,25,17,30,0.38,8,Rain-Snow,305
2013-1-3,24,15,6,14,10,5,93,78,63,30.25,30.09,29.99,10,10,10,17,8,20,0.00,1,,237
2013-1-4,24,15,6,18,8,1,85,77,59,30.04,29.98,29.88,10,10,10,14,5,,0.00,0,,221
2013-1-5,24,16,8,18,11,5,92,82,73,30.16,30.06,29.88,10,10,3,23,11,31,0.03,3,Rain-Snow,258
2013-1-6,30,15,0,19,12,-2,93,80,60,30.11,29.86,29.71,10,10,10,17,5,21,0.00,0,,232
2013-1-7,30,18,6,19,16,5,93,76,64,29.83,29.76,29.66,10,10,10,20,13,25,0.00,0,,247
2013-1-8,35,22,10,32,24,7,100,79,65,29.95,29.68,29.51,10,9,2,24,11,37,0.00,1,Rain-Snow,263
2013-1-9,39,24,10,27,19,7,86,76,61,30.00,29.89,29.67,10,10,10,15,10,,0.00,0,,160
2013-1-10,39,30,19,28,25,19,100,87,61,29.66,29.54,29.46,10,10,7,20,5,23,0.00,2,Snow,19
2013-1-11,19,10,1,18,7,-2,100,87,78,29.89,29.71,29.57,10,4,0,25,16,31,3.21,8,Rain-Snow,6
2013-1-12,3,-3,-9,-2,-8,-15,85,75,60,30.14,30.08,29.90,10,9,2,22,15,30,0.04,0,Snow,288
2013-1-13,5,-2,-9,0,-7,-13,85,81,71,30.16,30.13,30.08,10,10,5,12,6,,0.00,6,Rain-Snow,253
2013-1-14,14,2,-9,9,-1,-13,92,79,62,30.14,30.06,29.92,10,10,7,13,6,,0.00,7,Snow,223
2013-1-15,37,18,0,32,20,-2,100,87,73,29.92,29.77,29.65,10,9,2,25,11,39,0.45,7,Rain-Snow,245
2013-1-16,35,30,24,32,26,19,93,82,75,30.14,29.92,29.71,10,10,10,23,15,32,0.00,6,,291
2013-1-17,33,28,23,28,24,19,93,86,75,30.28,30.14,29.79,10,10,3,16,9,,0.01,5,Rain-Snow,159
2013-1-18,37,32,28,28,27,23,87,77,70,29.79,29.74,29.70,10,10,10,17,11,24,0.00,0,,246
2013-1-19,35,18,0,32,6,-8,93,75,66,30.32,30.13,29.74,10,9,2,29,13,34,0.05,3,Rain-Snow,307
2013-1-20,6,-2,-9,1,-11,-18,92,69,55,30.51,30.40,30.24,10,8,2,26,11,30,0.21,3,Rain-Snow,309
2013-1-21,1,-3,-7,-4,-11,-17,78,69,60,30.40,30.28,30.16,10,10,10,17,9,22,0.00,1,Snow,263
2013-1-22,15,8,1,9,3,-2,85,81,72,30.16,30.09,30.03,10,9,2,12,6,,0.03,5,Snow,231
2013-1-23,8,4,0,3,-3,-8,85,76,66,30.39,30.30,30.14,10,10,10,21,9,22,0.00,0,,28
2013-1-24,28,14,1,23,8,-2,86,79,68,30.24,29.97,29.80,10,10,1,23,17,31,0.01,6,Rain-Snow,188
2013-1-25,21,13,5,18,9,1,93,83,73,30.12,30.02,29.90,10,10,5,16,9,21,0.00,4,Rain-Snow,84
2013-1-26,32,23,14,25,17,10,93,85,69,29.89,29.82,29.78,10,10,7,9,3,,0.00,1,,42
2013-1-27,28,19,10,28,20,9,100,92,80,29.77,29.72,29.68,9,6,1,15,5,16,1.18,3,Rain-Snow,314
2013-1-28,30,18,6,28,20,5,100,90,80,29.76,29.73,29.69,10,8,0,9,4,,0.00,2,Fog,234
2013-1-29,17,6,-4,16,6,-11,100,89,71,30.15,29.86,29.66,10,4,0,28,6,33,0.54,8,Fog-Rain-Snow,330
2013-1-30,-4,-9,-14,-9,-17,-20,78,70,59,30.12,29.98,29.90,10,9,2,20,10,23,0.03,2,Rain-Snow,320
2013-1-31,0,-10,-20,-8,-21,-27,76,68,59,30.31,30.20,30.04,10,9,2,22,14,28,0.03,3,Rain-Snow,280